EW6122 Weather Reports


time (UTC)temp
C
wind
direction
speed
KPH
gust
KPH
rain 1hr
cm
rain 24hr
cm
rain mn
cm
humidity
%
barometer
mb
20260510204543 16 270 0.0 0.0 0.00 0.56 0.00 81 1010.4
20260510204538 16 0 0.0 0.0 0.00 0.56 0.00 81 1010.9
20260510203043 17 250 0.0 16.1 0.00 0.56 0.00 73 1010.4
20260510203030 17 0 0.0 22.5 0.00 0.56 0.00 73 1011.0
20260510201543 18 254 8.0 24.1 0.00 0.56 0.00 68 1010.1
20260510201529 18 234 6.4 24.1 0.00 0.56 0.00 68 1010.7
20260510200100 19 235 6.4 19.3 0.00 0.56 0.00 66 1010.4
20260510200037 19 234 4.8 19.3 0.00 0.56 0.00 66 1009.9
20260510194543 20 198 3.2 8.0 0.00 1.32 0.00 66 1010.3
20260510193042 20 0 0.0 6.4 0.00 1.32 0.00 64 1010.4
20260510193036 20 202 0.0 6.4 0.00 1.35 0.00 65 1009.9
20260510191535 20 198 4.8 16.1 0.00 1.35 0.00 67 1009.8
20260510191530 20 229 3.2 16.1 0.00 1.32 0.00 67 1010.2
20260510190031 20 224 3.2 22.5 0.00 1.32 0.00 63 1010.3
20260510184530 20 229 8.0 30.6 0.00 1.52 0.00 65 1010.4
20260510183044 20 182 3.2 17.7 0.00 1.52 0.00 67 1010.4
20260510183028 20 239 4.8 14.5 0.00 1.52 0.00 68 1010.0
20260510181534 20 155 3.2 14.5 0.00 1.52 0.00 70 1010.4
20260510181528 20 150 3.2 14.5 0.00 1.52 0.00 70 1009.9
20260510180045 19 140 3.2 14.5 0.00 1.52 0.00 68 1010.0
20260510180030 19 140 3.2 17.7 0.00 1.52 0.00 68 1010.5
20260510174550 20 157 4.8 12.9 0.00 1.52 0.00 68 1010.1
20260510174532 20 226 3.2 12.9 0.00 1.52 0.00 68 1010.5
20260510173042 20 254 1.6 14.5 0.00 1.52 0.00 70 1010.0
20260510173031 20 254 3.2 14.5 0.00 1.52 0.00 68 1010.3
20260510171541 20 217 6.4 20.9 0.00 1.52 0.00 69 1010.1
20260510171531 20 217 4.8 20.9 0.00 1.52 0.00 69 1010.5
20260510170042 19 132 3.2 11.3 0.00 1.52 0.00 75 1010.4
20260510170032 18 130 3.2 11.3 0.00 1.52 0.00 74 1010.7
20260510164542 18 0 0.0 0.0 0.00 1.52 0.00 75 1010.8
20260510164539 18 225 0.0 0.0 0.00 1.52 0.00 76 1010.4
20260510163038 19 133 0.0 0.0 0.00 1.52 0.00 72 1010.4
20260510163030 19 0 0.0 0.0 0.00 1.52 0.00 69 1010.8
20260510161535 18 239 0.0 0.0 0.00 1.52 0.00 76 1010.6
20260510161530 18 0 0.0 0.0 0.00 1.52 0.00 75 1011.0
20260510160052 17 190 0.0 0.0 0.00 1.52 0.00 80 1010.6
20260510160036 17 0 0.0 0.0 0.00 1.52 0.00 79 1011.0
20260510154548 17 131 0.0 0.0 0.00 1.52 0.00 79 1010.9
20260510154540 17 0 0.0 0.0 0.00 1.52 0.00 79 1011.3
20260510153044 17 166 0.0 0.0 0.00 1.52 0.00 80 1011.1
20260510153039 17 0 0.0 0.0 0.00 1.52 0.00 80 1011.4
20260510151541 16 168 0.0 0.0 0.00 1.52 0.00 82 1011.1
20260510151531 16 0 0.0 0.0 0.00 1.52 0.00 81 1011.3
20260510150045 16 156 0.0 0.0 0.00 1.52 0.00 85 1011.2
20260510150034 16 0 0.0 0.0 0.00 1.52 0.00 85 1011.4
20260510144541 16 158 0.0 0.0 0.00 1.52 0.00 85 1011.0
20260510144532 15 0 0.0 0.0 0.00 1.52 0.00 84 1011.3
20260510143038 15 194 0.0 4.8 0.00 1.52 0.00 87 1011.0
20260510143036 15 0 0.0 4.8 0.00 1.52 0.00 86 1011.3
20260510141535 13 135 0.0 0.0 0.00 1.52 0.00 91 1011.1
20260510141532 13 0 0.0 0.0 0.00 1.52 0.00 91 1011.4
20260510140058 13 132 0.0 0.0 0.00 1.52 0.00 91 1011.1
20260510140031 13 0 0.0 0.0 0.00 1.52 0.00 91 1011.4
20260510134557 12 121 0.0 0.0 0.00 1.52 0.00 92 1011.1
20260510134531 12 0 0.0 0.0 0.00 1.52 0.00 92 1011.3
20260510133048 12 188 0.0 0.0 0.00 1.52 0.00 92 1010.9
20260510133038 12 0 0.0 0.0 0.00 1.52 0.00 91 1011.2
20260510131547 12 191 0.0 0.0 0.00 1.52 0.00 93 1011.0
20260510131531 12 0 0.0 0.0 0.00 1.52 0.00 92 1011.3
20260510130045 12 191 0.0 0.0 0.00 1.52 0.00 92 1011.1
20260510130032 12 0 0.0 0.0 0.00 1.52 0.00 91 1011.4
20260510124554 11 192 0.0 0.0 0.00 1.52 0.00 93 1011.1
20260510124530 11 0 0.0 0.0 0.00 1.52 0.00 93 1011.4
20260510123041 11 191 0.0 0.0 0.00 1.52 0.00 94 1010.9
20260510123035 11 0 0.0 0.0 0.00 1.52 0.00 93 1011.2
20260510121538 11 191 0.0 0.0 0.00 1.52 0.00 94 1010.8
20260510121532 11 0 0.0 0.0 0.00 1.52 0.00 93 1011.1
20260510120039 11 148 0.0 0.0 0.00 1.52 0.00 95 1010.7
20260510120033 11 0 0.0 3.2 0.00 1.52 0.00 95 1011.0
20260510114540 11 148 1.6 6.4 0.00 1.52 0.00 97 1010.6
20260510114534 11 148 1.6 8.0 0.00 1.52 0.00 96 1010.9
20260510113041 11 163 0.0 3.2 0.00 1.52 0.00 97 1010.8
20260510113036 11 163 0.0 3.2 0.00 1.52 0.00 97 1010.5
20260510111531 10 163 0.0 3.2 0.00 1.52 0.00 97 1010.4
20260510110050 10 163 0.0 8.0 0.00 1.52 0.00 97 1010.2
20260510110030 10 0 0.0 8.0 0.00 1.52 0.00 97 1010.4
20260510104545 10 185 1.6 6.4 0.00 1.55 0.00 97 1010.2
20260510104532 10 185 1.6 6.4 0.00 1.55 0.00 97 1010.4
20260510103051 10 182 0.0 4.8 0.00 1.55 0.00 97 1010.2
20260510103029 10 0 0.0 4.8 0.00 1.55 0.00 97 1010.4
20260510101548 10 188 0.0 4.8 0.00 1.55 0.00 97 1009.8
20260510101531 10 188 0.0 4.8 0.00 1.55 0.00 97 1010.1
20260510100040 10 190 0.0 3.2 0.00 1.55 0.00 97 1010.0
20260510100031 10 190 1.6 3.2 0.00 1.55 0.00 97 1010.2
20260510094542 10 190 0.0 1.6 0.00 1.55 0.00 97 1010.1
20260510094530 10 0 0.0 3.2 0.00 1.55 0.00 97 1010.4
20260510093035 10 190 0.0 4.8 0.00 1.55 0.00 97 1010.0
20260510093032 10 190 0.0 8.0 0.00 1.55 0.00 96 1010.2
20260510091533 10 192 0.0 3.2 0.00 1.55 0.00 97 1010.0
20260510090053 10 194 0.0 4.8 0.00 1.55 0.00 97 1010.1
20260510090030 10 221 0.0 3.2 0.00 1.55 0.00 97 1010.3
20260510084550 10 243 1.6 6.4 0.00 1.63 0.00 97 1010.4
20260510084533 10 243 1.6 6.4 0.00 1.63 0.00 97 1010.7
20260510083051 10 187 0.0 4.8 0.00 1.63 0.00 98 1010.1
20260510083033 10 0 0.0 4.8 0.00 1.63 0.00 97 1010.3
20260510081555 10 186 0.0 4.8 0.00 1.63 0.00 98 1010.1
20260510081538 10 0 0.0 9.7 0.00 1.63 0.00 97 1010.3
20260510080044 10 181 0.0 3.2 0.00 1.63 0.00 98 1010.1
20260510080031 10 0 0.0 1.6 0.00 1.63 0.00 97 1010.3
20260510074542 10 181 0.0 3.2 0.00 1.63 0.00 98 1009.7
20260510074532 10 0 0.0 3.2 0.00 1.63 0.00 97 1010.0
20260510073041 10 181 0.0 3.2 0.00 1.63 0.00 98 1009.7
20260510073034 10 0 0.0 3.2 0.00 1.63 0.00 97 1010.0
20260510071541 10 181 1.6 4.8 0.00 1.63 0.00 98 1009.8
20260510071532 10 181 0.0 4.8 0.00 1.63 0.00 97 1010.0
20260510070045 10 180 0.0 1.6 0.00 1.63 0.00 98 1009.8
20260510070031 10 180 0.0 1.6 0.00 1.63 0.00 98 1010.0
20260510064541 10 0 0.0 1.6 0.00 1.63 0.00 97 1010.1
20260510064536 10 180 0.0 0.0 0.00 1.63 0.00 98 1009.8
20260510063038 10 0 0.0 1.6 0.00 1.63 0.00 97 1009.9
20260510063036 11 180 0.0 1.6 0.00 1.63 0.00 98 1009.7
20260510061536 10 180 0.0 0.0 0.00 1.63 0.00 98 1009.3
20260510061529 10 0 0.0 1.6 0.00 1.63 0.00 97 1009.5
20260510060043 10 180 1.6 8.0 0.00 1.63 0.00 98 1009.4
20260510060032 10 180 1.6 8.0 0.00 1.63 0.00 97 1009.5
20260510054555 11 238 0.0 1.6 0.00 1.63 0.00 98 1009.5
20260510054532 11 238 0.0 1.6 0.00 1.63 0.00 97 1009.7
20260510053041 11 238 0.0 1.6 0.00 1.63 0.00 98 1009.6
20260510053037 11 0 0.0 3.2 0.00 1.63 0.00 98 1009.8
20260510051540 11 238 0.0 0.0 0.00 1.63 0.00 98 1009.6
20260510051532 11 0 0.0 0.0 0.00 1.63 0.00 98 1009.7
20260510050043 11 238 0.0 3.2 0.00 1.63 0.00 98 1009.6
20260510050030 11 238 0.0 3.2 0.00 1.63 0.00 98 1009.7
20260510044545 11 238 0.0 3.2 0.00 1.63 0.00 98 1009.7
20260510043036 11 238 0.0 0.0 0.00 1.63 0.00 98 1009.6
20260510043034 11 0 0.0 0.0 0.00 1.63 0.00 97 1009.7
20260510041544 11 238 0.0 3.2 0.00 1.63 0.00 98 1009.4
20260510041531 11 0 0.0 3.2 0.00 1.63 0.00 97 1009.6
20260510040039 11 238 0.0 3.2 0.00 1.63 0.00 98 1009.3
20260510040031 11 238 0.0 3.2 0.00 1.63 0.00 97 1009.5
20260510034536 11 0 0.0 3.2 0.00 1.63 1.63 97 1009.6
20260510034534 11 238 0.0 1.6 0.00 1.63 1.63 98 1009.4
20260510033032 11 238 0.0 3.2 0.00 1.63 1.63 98 1009.5
20260510031547 11 237 1.6 6.4 0.00 1.63 1.63 97 1009.7
20260510031534 11 237 1.6 6.4 0.00 1.63 1.63 97 1009.8
20260510030036 11 192 1.6 4.8 0.00 1.63 1.63 97 1009.7
20260510030031 11 192 1.6 4.8 0.00 1.63 1.63 97 1009.9
20260510024532 11 186 1.6 6.4 0.00 1.63 1.63 97 1009.7
20260510024530 11 186 1.6 6.4 0.00 1.63 1.63 97 1009.4
20260510023033 11 182 1.6 12.9 0.00 1.63 1.63 97 1009.5
20260510023029 11 168 1.6 9.7 0.00 1.63 1.63 97 1009.4
20260510021537 11 210 3.2 12.9 0.00 1.63 1.63 97 1009.7
20260510021531 11 190 3.2 12.9 0.00 1.63 1.63 97 1009.5
20260510020044 11 163 1.6 8.0 0.00 1.63 1.63 97 1009.7
20260510020033 11 163 1.6 9.7 0.00 1.63 1.63 96 1009.9
20260510014547 11 188 1.6 8.0 0.00 1.63 1.63 97 1009.6
20260510014533 11 188 1.6 8.0 0.00 1.63 1.63 96 1009.8
20260510013057 11 190 0.0 9.7 0.00 1.63 1.63 97 1009.6
20260510013031 11 190 0.0 11.3 0.00 1.63 1.63 97 1009.7
20260510011542 11 125 1.6 11.3 0.03 1.63 1.63 97 1009.4
20260510011533 11 143 3.2 11.3 0.03 1.63 1.63 97 1009.6
20260510010038 11 138 1.6 6.4 0.03 1.63 1.63 97 1009.2
20260510010032 11 138 1.6 6.4 0.03 1.63 1.63 97 1009.4
20260510004545 11 130 0.0 4.8 0.03 1.63 1.63 97 1009.2
20260510004532 11 130 0.0 4.8 0.03 1.63 1.63 97 1009.4
20260510003037 11 136 1.6 4.8 0.03 1.63 1.63 97 1008.8
20260510003032 11 136 1.6 4.8 0.03 1.63 1.63 97 1009.0
20260510001536 11 142 0.0 4.8 0.00 1.60 1.60 97 1008.7
20260510001529 11 0 0.0 4.8 0.00 1.60 1.60 97 1008.9
20260510000034 11 146 0.0 8.0 0.03 1.60 1.60 97 1008.7
20260509234535 11 158 3.2 8.0 0.08 1.60 1.60 97 1009.0
20260509233032 11 153 0.0 3.2 0.13 1.60 1.60 97 1009.0
20260509233030 11 152 0.0 3.2 0.13 1.60 1.60 97 1008.8
20260509231531 11 0 1.6 11.3 0.18 1.60 1.60 97 1009.5
20260509231528 11 134 1.6 11.3 0.18 1.60 1.60 97 1009.2
20260509230044 11 114 1.6 6.4 0.20 1.57 1.57 97 1009.2
20260509230030 11 113 1.6 6.4 0.20 1.57 1.57 97 1009.5
20260509224544 11 182 1.6 8.0 0.20 1.52 1.52 97 1009.4
20260509224535 11 148 1.6 8.0 0.20 1.52 1.52 97 1009.7
20260509223047 11 92 0.0 4.8 0.18 1.45 1.45 97 1009.3
20260509223031 11 92 0.0 4.8 0.18 1.47 1.47 96 1009.4
20260509221545 11 65 0.0 1.6 0.15 1.42 1.42 97 1009.7
20260509221532 11 0 0.0 3.2 0.15 1.42 1.42 96 1009.9
20260509220033 11 64 0.0 3.2 0.10 1.37 1.37 97 1009.9
20260509220031 11 0 0.0 3.2 0.10 1.37 1.37 96 1010.1
20260509214532 11 63 0.0 4.8 0.10 1.32 1.32 96 1010.0
20260509213032 11 324 0.0 3.2 0.10 1.30 1.30 96 1009.8
20260509213030 11 323 0.0 3.2 0.10 1.30 1.30 96 1009.9
20260509211533 11 323 0.0 6.4 0.13 1.27 1.27 96 1009.5
20260509211530 11 323 0.0 6.4 0.13 1.27 1.27 96 1009.7
20260509210054 11 335 4.8 8.0 0.20 1.27 1.27 96 1009.1
20260509210033 11 323 3.2 8.0 0.20 1.27 1.27 96 1009.4